| time (UTC) | temp F | wind direction | speed knots | gust knots | rain 1hr in | rain 24hr in | rain mn in | humidity % | barometer mb |
| 20260504001552 | 53 | 0 | 0.0 | 1.7 | 0.00 | 0.00 | 0.00 | 49 | 1011.8 |
| 20260504000106 | 54 | 0 | 0.0 | 3.5 | 0.00 | 0.00 | 0.00 | 45 | 1011.5 |
| 20260503234549 | 55 | 0 | 0.0 | 0.9 | 0.00 | 0.00 | 0.00 | 43 | 1011.4 |
| 20260503233049 | 56 | 0 | 0.9 | 6.1 | 0.00 | 0.00 | 0.00 | 41 | 1011.4 |
| 20260503231554 | 57 | 0 | 2.6 | 7.0 | 0.00 | 0.00 | 0.00 | 40 | 1011.3 |
| 20260503230052 | 58 | 303 | 0.9 | 7.8 | 0.00 | 0.00 | 0.00 | 39 | 1011.3 |
| 20260503224600 | 58 | 0 | 2.6 | 9.6 | 0.00 | 0.00 | 0.00 | 37 | 1011.3 |
| 20260503223050 | 59 | 296 | 2.6 | 8.7 | 0.00 | 0.00 | 0.00 | 37 | 1011.2 |
| 20260503221601 | 59 | 298 | 4.3 | 10.4 | 0.00 | 0.00 | 0.00 | 36 | 1011.1 |
| 20260503220052 | 59 | 317 | 5.2 | 11.3 | 0.00 | 0.00 | 0.00 | 35 | 1010.9 |
| 20260503214551 | 58 | 285 | 2.6 | 11.3 | 0.00 | 0.00 | 0.00 | 36 | 1011.2 |
| 20260503213050 | 59 | 297 | 2.6 | 9.6 | 0.00 | 0.00 | 0.00 | 36 | 1011.0 |
| 20260503211556 | 59 | 319 | 3.5 | 10.4 | 0.00 | 0.00 | 0.00 | 33 | 1011.0 |
| 20260503210050 | 59 | 338 | 7.0 | 15.6 | 0.00 | 0.00 | 0.00 | 35 | 1011.1 |
| 20260503204609 | 59 | 331 | 5.2 | 13.9 | 0.00 | 0.00 | 0.00 | 36 | 1011.2 |
| 20260503203049 | 59 | 327 | 5.2 | 11.3 | 0.00 | 0.00 | 0.00 | 37 | 1011.1 |
| 20260503201552 | 59 | 284 | 4.3 | 10.4 | 0.00 | 0.00 | 0.00 | 36 | 1011.3 |
| 20260503200054 | 57 | 296 | 2.6 | 10.4 | 0.00 | 0.00 | 0.00 | 38 | 1011.5 |
| 20260503194555 | 57 | 281 | 4.3 | 15.6 | 0.00 | 0.00 | 0.00 | 35 | 1011.5 |
| 20260503193051 | 57 | 242 | 2.6 | 10.4 | 0.00 | 0.00 | 0.00 | 37 | 1011.6 |
| 20260503191608 | 57 | 304 | 6.1 | 15.6 | 0.00 | 0.00 | 0.00 | 35 | 1011.5 |
| 20260503190048 | 56 | 314 | 2.6 | 12.2 | 0.00 | 0.00 | 0.00 | 41 | 1011.6 |
| 20260503184553 | 56 | 321 | 1.7 | 15.6 | 0.00 | 0.00 | 0.00 | 41 | 1011.5 |
| 20260503183055 | 56 | 271 | 1.7 | 11.3 | 0.00 | 0.00 | 0.00 | 39 | 1011.7 |
| 20260503181552 | 55 | 298 | 4.3 | 12.2 | 0.00 | 0.00 | 0.00 | 39 | 1011.9 |
| 20260503180059 | 56 | 260 | 5.2 | 15.6 | 0.00 | 0.00 | 0.00 | 40 | 1012.1 |
| 20260503174555 | 54 | 284 | 6.1 | 13.0 | 0.00 | 0.00 | 0.00 | 43 | 1012.4 |
| 20260503173048 | 54 | 289 | 2.6 | 10.4 | 0.00 | 0.00 | 0.00 | 46 | 1012.3 |
| 20260503171550 | 52 | 291 | 3.5 | 11.3 | 0.00 | 0.00 | 0.00 | 42 | 1012.6 |
| 20260503081553 | 44 | 317 | 0.9 | 7.0 | 0.00 | 0.00 | 0.00 | 62 | 1011.0 |
| 20260503071611 | 42 | 0 | 0.0 | 0.0 | 0.00 | 0.00 | 0.00 | 69 | 1010.9 |
| 20260503054609 | 45 | 0 | 0.0 | 0.0 | 0.00 | 0.00 | 0.00 | 63 | 1011.0 |
| 20260503053055 | 45 | 0 | 0.0 | 0.9 | 0.00 | 0.00 | 0.00 | 62 | 1011.0 |
| 20260503051552 | 45 | 0 | 0.0 | 1.7 | 0.00 | 0.00 | 0.00 | 62 | 1011.3 |
| 20260503050051 | 46 | 0 | 0.0 | 0.9 | 0.00 | 0.00 | 0.00 | 60 | 1011.3 |
| 20260503044548 | 47 | 0 | 0.0 | 2.6 | 0.00 | 0.00 | 0.00 | 58 | 1011.4 |
| 20260503043055 | 47 | 325 | 0.0 | 3.5 | 0.00 | 0.00 | 0.00 | 58 | 1011.5 |
| 20260503041552 | 47 | 0 | 0.0 | 2.6 | 0.00 | 0.00 | 0.00 | 56 | 1011.7 |
| 20260503040055 | 47 | 332 | 0.9 | 2.6 | 0.00 | 0.00 | 0.00 | 56 | 1011.7 |
| 20260503034550 | 48 | 311 | 0.9 | 2.6 | 0.00 | 0.00 | 0.00 | 56 | 1011.8 |
| 20260503033058 | 48 | 0 | 0.0 | 2.6 | 0.00 | 0.00 | 0.00 | 57 | 1011.9 |
| 20260503031553 | 48 | 0 | 0.0 | 2.6 | 0.00 | 0.00 | 0.00 | 56 | 1012.0 |
| 20260503030049 | 48 | 329 | 0.0 | 2.6 | 0.00 | 0.00 | 0.00 | 57 | 1012.1 |
| 20260503024552 | 47 | 0 | 0.0 | 0.9 | 0.00 | 0.00 | 0.00 | 59 | 1011.9 |
| 20260503023054 | 47 | 0 | 0.0 | 0.0 | 0.00 | 0.00 | 0.00 | 59 | 1011.9 |
| 20260503021553 | 47 | 0 | 0.0 | 0.0 | 0.00 | 0.00 | 0.00 | 59 | 1011.8 |
| 20260503020050 | 48 | 0 | 0.0 | 0.0 | 0.00 | 0.00 | 0.00 | 60 | 1011.9 |
| 20260503014600 | 48 | 0 | 0.0 | 0.0 | 0.00 | 0.00 | 0.00 | 56 | 1011.8 |
| 20260503013050 | 49 | 0 | 0.0 | 0.9 | 0.00 | 0.00 | 0.00 | 57 | 1011.9 |
| 20260503011551 | 50 | 0 | 0.0 | 2.6 | 0.00 | 0.00 | 0.00 | 57 | 1011.9 |
| 20260503010054 | 49 | 320 | 0.9 | 4.3 | 0.00 | 0.00 | 0.00 | 56 | 1011.7 |
| 20260503004550 | 49 | 0 | 0.0 | 1.7 | 0.00 | 0.00 | 0.00 | 59 | 1011.4 |
| 20260503003051 | 50 | 0 | 0.0 | 0.0 | 0.00 | 0.00 | 0.00 | 57 | 1011.4 |